SL-16 DEB, 22551

Orbit data source: Space-Track

SL-16 DEB, 22551 is space debris in LEO originally from a launch on Fri, 25 Dec 1992 UTC launched from the Tyuratam Missile And Space Complex (TTMTR). Debris objects in space refer to the collection of defunct objects orbiting the Earth. Examples of debris include non-operational satellites, rocket bodies, and fragments generated from explosions, collisions, or faulty payload assembly.

Loading next visibility...
Identifier
22551, 1992-093HM
Orbit
LEO
Country
Flag of CISCIS
Related business
Manufacturer
Unknown
Mission
Spacecraft
Bus & Motor
Unknown
Mass
Unknown
Launch date (UTC)
1992-12-25 (33 years ago)
Launch vehicle
Unknown
Launch site
Tyuratam Missile And Space Complex (TTMTR)
Object type
Payload
Rocket body
Debris
Shape & HBR
Unknown shape, 0.1 m
Radar Cross Section
Small (<0.1 m²)

Expand to show TLE details & history
Last TLE update: 23 hours ago

TLE from 23 hours ago
0 SL-16 DEB
1 22551U 92093HM  25296.04811854  .00000216  00000-0  18115-3 0  9991
2 22551  70.8637 172.0370 0095164 341.6671  18.1018 13.97041125670387
Epoch: 2025-10-23T01:09Z
TLE epoch observation values (Epoch: 2025-10-23T01:09:17.441Z)
Latitude
-0.00005°
Longitude
123.00134°
Altitude
840.616 km
Speed
7.466 km/s
True Right ascension
11h 28m 08s
True Declination
0° 00' 00"
Sunlit
Object was in daylight at epoch
Visualization orbit readout
Latitude
Unknown
Longitude
Unknown
Altitude
Unknown
Speed
Unknown
Apparent Right ascension
Unknown
Apparent Declination
Unknown
Sunlit
N/A
Visualization observer readout
Local Sidereal Time
19:31:33
Azimuth
Unknown
Elevation
Unknown
Doppler factor
Unknown
Orbital elements
Apogee altitude
971.296 km
Perigee altitude
832.734 km
Semi-major axis
7,280.152 km
Eccentricity
0.00952
Inclination
70.8637°
RAAN
172.037°
Arg. of periapsis
341.6671°
True anomaly
18.4445°
Mean anomaly
18.1018°
Eccentric anomaly
18.27276°
Mean motion
3.49408 °/min
Orbital period
103.03 mins
BSTAR
0.00018115
Loading maneuver chart data...
Computing Atmospheric mass density...
Loading historical data...
Loading historical data...
Loading historical data...
Loading historical data...
Loading historical data...
Loading historical data...
Loading historical data...

Documentation

Showing up to 5 results
|